Regional Weather Roundup
Issued by NWS Upton, NY

Home | Current Version | Previous Version | Text Only | Print | Product List | Glossary On
Versions: 1 2 3 4 5 6 7 8 9 10 11 12 13 14 15 16 17 18 19 20 21 22 23 24 25 26 27 28 29 30 31 32 33 34 35 36 37 38 39 40 41 42 43 44 45 46 47 48 49 50
000
ASUS41 KOKX 280808
RWROKX

REGIONAL WEATHER ROUNDUP
NATIONAL WEATHER SERVICE NEW YORK NY
400 AM EDT WED SEP 28 2016

NOTE: "FAIR" INDICATES FEW OR NO CLOUDS BELOW 12,000 FEET WITH NO
SIGNIFICANT WEATHER AND/OR OBSTRUCTIONS TO VISIBILITY.

NYZ071-072-176-178-NJZ106-104-280900-
NEW YORK CITY METRO AREA

CITY           SKY/WX    TMP DP  RH WIND       PRES   REMARKS
Central Park   CLEAR     62  60  93 NE3       30.04R FOG
LaGuardia APRT MOCLDY    65  61  87 NE5       30.01R
Kennedy INTL   PTCLDY    59  57  93 NE6       30.02R
Newark/Liberty PTCLDY    57  53  86 N8        30.01S
Bronx Bot Gard   N/A     57  55  94 NW2       30.04R
Wall St Helipt SUNNY     68  64  88 NE5       30.02R
Teterboro      CLEAR     56  51  84 CALM      30.01S
$$

NYZ177-179-078>081-280900-
LONG ISLAND NEW YORK

CITY           SKY/WX    TMP DP  RH WIND       PRES   REMARKS
Farmingdale    CLEAR     58  57  97 N5        30.02R
MacArthur/ISP  PTCLDY    57  57 100 N3        30.01S FOG
Shirley        CLEAR     59  58  96 N5        30.02S
Riverhead      NOT AVBL
Westhampton    CLEAR     55  53  93 N3        30.03S
Southampton      N/A     61  61 100 SW2       29.98S
Bridgehampton    N/A     61  61 100 CALM      29.87S
East Hampton   FAIR      63  62  97 NE6       30.01F
Montauk          N/A     65  63  93 NE6       30.04R
$$

NYZ052-065-067-280900-
HUDSON VALLEY

CITY           SKY/WX    TMP DP  RH WIND       PRES   REMARKS
White Plains   CLEAR     57  53  86 W5        30.02R
Newburgh       FOG       50  50 100 CALM      30.05R VSB 3/4
Montgomery     PTCLDY    46  45  96 CALM      30.04R FOG
Poughkeepsie   PTCLDY    46  45  96 CALM      30.04R
Albany         FOG       50  49  96 CALM      30.06R VSB 1
$$

NJZ001-105-106-008-010-013-015-019>022-104-280900-
NEW JERSEY

CITY           SKY/WX    TMP DP  RH WIND       PRES   REMARKS
Newark/Liberty PTCLDY    57  53  86 N8        30.01S
Teterboro      CLEAR     56  51  84 CALM      30.01S
Caldwell       CLEAR     52  50  93 CALM      30.03S
Morristown     FOG       45  45 100 CALM      30.03R VSB 1/4
Somerville     CLEAR     48  46  93 CALM      30.01R
Linden         NOT AVBL
Sussex         PTCLDY    45  44  97 CALM      30.04S FOG
Abdover          N/A     47  46  97 CALM      30.04R
Trenton        PTCLDY    52  50  93 CALM      30.01R
Millville      PTCLDY    53  53 100 CALM      29.99S
Atlantic City  MOCLDY    59  57  93 CALM      29.99F
Wrightstown    CLEAR     52  52  99 CALM      29.98S
Toms River     CLOUDY    57  55  93 CALM      30.01S
Belmar         CLOUDY    59  58  96 CALM      30.02R
$$

PAZ047>061-062-071-280900-
EASTERN PENNSYLVANIA

CITY           SKY/WX    TMP DP  RH WIND       PRES   REMARKS
Philadelphia   PTCLDY    59  57  93 CALM      30.01R
Allentown      CLEAR     49  46  90 N3        30.03R
Scranton       CLEAR     51  45  79 E8        30.03R
$$

CTZ002-004>006-009-010-012-RIZ004-006-007-MAZ004-011-015-280900-
SOUTHERN NEW ENGLAND
 IN CT

CITY           SKY/WX    TMP DP  RH WIND       PRES   REMARKS
Bradley INTL   PTCLDY    54  52  93 N5        30.05R
Hartford       MOCLDY    57  56  96 N3        30.05R
Danbury        FOG       52  52 100 CALM      30.05R VSB 1/4
Wtrbury/Oxford   N/A     57  54  88 NE5       30.06R
Bridgeport     CLEAR     60  57  89 NE6       30.03R
Meriden        CLOUDY    60  57  89 W3        30.05R
New Haven      FOG       59  58  96 N7        30.03S VSB 3/4
Chester        FOG       57  57 100 N3        30.04S VSB<1/4
Groton         CLOUDY    62  60  93 NE9       30.04R FOG
Wilimantic     CLOUDY    56  56 100 CALM      30.06S FOG

 IN RI

CITY           SKY/WX    TMP DP  RH WIND       PRES   REMARKS
Providence     CLOUDY    61  58  90 NE6       30.07R
Block Island   CLOUDY    64  63  96 NE6       30.04R
Westerly       CLOUDY    62  59  90 N3        30.05R
 IN MA

CITY           SKY/WX    TMP DP  RH WIND       PRES   REMARKS
Boston         CLOUDY    61  58  90 NE13      30.10R
Worcester      LGT RAIN  57  56  96 NE6       30.09R VSB 1/4
Westfield      PTCLDY    51  50  96 N6        30.07R
Provincetown   CLOUDY    61  58  90 E13       30.08R
Nantucket      CLOUDY    63  62  97 NE14      30.02S FOG
$$

ANZ330-335-338-340-345-350-353-355-280900-
COASTAL MARINE OBSERVATIONS


STATION/POSITION TIME  SKY/WX   TEMP    WIND        PRES    VSBY  WAVE
                                AIR SEA DIR/SP/G                  HT/PER
                 (UTC)          (F)     (DEG/KT/KT) (MB)    (MI)  (FT/S)
NY HARB ENTRANCE 0750            69 71   20/  8/  8 1015.9          3/ 7
20S FIRE ISLAND  0750            69 69   30/ 10/ 12 1015.6          4/ 7
GREAT SOUTH BAY  0730            64 70   10/  4/  6   N/A
23 SSW MONTAUK P 0750            67 67   20/ 10/ 12 1016.4          4/ 7
15 E BARNEGAT LI 0730               71                N/A           3/ 6
HUDSON CANYON    0650            68 69              1015.4          4/ 6
KINGS POINT      0742            63 72              1016.2
EXECUTION ROCKS  0745            65      20/  4/  6   N/A
CENTRAL LI SOUND 0730            68 72   40/ 10/ 12   N/A           1
EASTERN LI SOUND NOT AVBL
ROBBINS REEF     0748            62     330/  4/  5 1016.4
$$


>>>>>>>>>>>>>>>>>>>>>>>>>>>> KEY <<<<<<<<<<<<<<<<<<<<<<<<<<<
>                                                          <
>     SKY/WX - Sky Condition/Present Weather               <
>     TMP    - Temperature in Fahrenheit                   <
>     DP     - Dew Point in Fahrenheit                     <
>     RH     - Relative Humidity in Percent                <
>     WIND   - Direction (from) and Speed in MPH           <
>     PRES   - Mean Sea Level Pressure (inches of Hg)      <
>     WCI    - Wind Chill Index                            <
>     VSB    - VISIBILITY IN MILES                         <
>     HX     - HEAT INDEX                                  <
>     TC     - TEMPERATURE IN CELSIUS                      <
>     VRB    - VARIABLE WIND DIRECTION                     <
>                                                          <
>>>>>>>>>>>>>>>>>>>>>>>>>>>> KEY <<<<<<<<<<<<<<<<<<<<<<<<<<<




USA.gov is the U.S. government's official web portal to all federal, state and local government web resources and services.